Location: Cerezo de Arriba
(41.2389°N, 3.5585°W)
Time: 04:28:26
(UTC+00:00)

Cosmos 2082 Rocket - Pass Details

Date: 19 May 2025
Orbit: 831 x 853 km, 71.0° (Epoch: 23 June)

Event Time Altitude Azimuth Distance (km) Brightness Sun altitude
Exits shadow 23:23:27 22° 255° (WSW) 1,744 3.8 -27.8°
Maximum altitude 23:26:11 34° 302° (WNW) 1,347 3.5 -27.9°
Drops below altitude 10° 23:31:16 10° 7° (N) 2,453 5.5 -28.1°
Sets 23:33:58 0° 17° (NNE) 3,393 6.3 -28.2°
